^^

..:: Storico WU ::..




Lo storico viene creato da WUnderground con i dati che la stazione Meteomincio invia al loro server. L' aggiornamento viene fatto ogni 5 minuti circa, tuttavia possono esserci intervalli pił ampi a causa di errori, interruzioni di servizio o problemi nell' invio tramite FTP.


Storico stazione MeteoMincio
Giorno Sommario per Marzo 05, 2022 Unità:  Inglese    Metrico   Entrambi
Giorno Settimana Mese Anno
  Max: Min: Media:
Temperatura: 50 °F 37.4 °F 43.2 °F
Dew Point: 32 °F 24.8 °F 28.2 °F
Umidità: 76% 39% 57%
Velocità vento: 15.5mph 1.2mph 6.9mph
Raffica: 23mph - -
Direzione- - East
Pressione: 30.1 in 30 in -
Precipitazioni: 0 in    
 
 
Tabulato Dati per Marzo 05, 2022
Ora Temperatura Dew Point Pressione Direzione Velocità vento Raffica Umidità Intensità pioggia (oraria) Info solare Situazione
00:04 41 °F 30.2 °F 30 in ENE 5.6 mph 8.1 mph 68% 0 in 0.00 W/m2 unknown
00:09 39.2 °F 30.2 °F 30 in ENE 5.6 mph 6.8 mph 69% 0 in 0.00 W/m2 unknown
00:14 39.2 °F 30.2 °F 30 in East 3.7 mph 6.8 mph 69% 0 in 0.00 W/m2 unknown
00:19 39.2 °F 30.2 °F 30 in ENE 4.3 mph 6.8 mph 70% 0 in 0.00 W/m2 unknown
00:24 39.2 °F 30.2 °F 30 in East 3.7 mph 6.8 mph 71% 0 in 0.00 W/m2 unknown
00:29 39.2 °F 30.2 °F 30 in ENE 3.7 mph 5 mph 71% 0 in 0.00 W/m2 unknown
00:34 39.2 °F 30.2 °F 30 in ENE 5 mph 6.8 mph 71% 0 in 0.00 W/m2 unknown
00:39 39.2 °F 30.2 °F 30 in ENE 5 mph 6.8 mph 71% 0 in 0.00 W/m2 unknown
00:44 39.2 °F 30.2 °F 30 in ENE 3.7 mph 6.8 mph 71% 0 in 0.00 W/m2 unknown
00:49 39.2 °F 30.2 °F 30 in ENE 5 mph 6.8 mph 71% 0 in 0.00 W/m2 unknown
00:54 39.2 °F 30.2 °F 30 in East 5 mph 6.8 mph 72% 0 in 0.00 W/m2 unknown
00:59 39.2 °F 30.2 °F 30 in East 5 mph 6.8 mph 72% 0 in 0.00 W/m2 unknown
01:04 39.2 °F 30.2 °F 30 in East 5.6 mph 8.1 mph 72% 0 in 0.00 W/m2 unknown
01:09 39.2 °F 32 °F 30 in ENE 5 mph 8.1 mph 73% 0 in 0.00 W/m2 unknown
01:14 39.2 °F 32 °F 30 in ENE 5.6 mph 9.3 mph 73% 0 in 0.00 W/m2 unknown
01:19 39.2 °F 32 °F 30 in ENE 5.6 mph 8.7 mph 73% 0 in 0.00 W/m2 unknown
01:24 39.2 °F 30.2 °F 30 in ENE 6.2 mph 8.1 mph 72% 0 in 0.00 W/m2 unknown
01:29 39.2 °F 30.2 °F 30 in ENE 5 mph 8.1 mph 73% 0 in 0.00 W/m2 unknown
01:34 39.2 °F 30.2 °F 30 in ENE 5 mph 8.1 mph 73% 0 in 0.00 W/m2 unknown
01:39 39.2 °F 30.2 °F 30 in ENE 5 mph 8.1 mph 73% 0 in 0.00 W/m2 unknown
01:44 39.2 °F 30.2 °F 30 in ENE 5 mph 8.1 mph 73% 0 in 0.00 W/m2 unknown
01:49 39.2 °F 30.2 °F 30 in ENE 5 mph 6.8 mph 72% 0 in 0.00 W/m2 unknown
01:54 39.2 °F 32 °F 30 in ENE 6.2 mph 8.1 mph 76% 0 in 0.00 W/m2 unknown
01:59 37.4 °F 30.2 °F 30.1 in East 8.1 mph 11.8 mph 72% 0 in 0.00 W/m2 unknown
02:04 39.2 °F 30.2 °F 30 in ENE 6.2 mph 11.8 mph 72% 0 in 0.00 W/m2 unknown
02:09 39.2 °F 30.2 °F 30 in ENE 8.1 mph 11.8 mph 71% 0 in 0.00 W/m2 unknown
02:14 39.2 °F 30.2 °F 30 in ENE 8.7 mph 11.8 mph 69% 0 in 0.00 W/m2 unknown
02:19 39.2 °F 28.4 °F 30 in ENE 8.7 mph 11.8 mph 68% 0 in 0.00 W/m2 unknown
02:24 39.2 °F 28.4 °F 30 in ENE 8.1 mph 11.8 mph 68% 0 in 0.00 W/m2 unknown
02:29 39.2 °F 30.2 °F 30 in ENE 8.1 mph 11.8 mph 69% 0 in 0.00 W/m2 unknown
02:34 39.2 °F 30.2 °F 30 in ENE 8.7 mph 13 mph 69% 0 in 0.00 W/m2 unknown
02:39 39.2 °F 30.2 °F 30 in ENE 9.3 mph 13 mph 69% 0 in 0.00 W/m2 unknown
02:44 39.2 °F 30.2 °F 30 in ENE 8.7 mph 13 mph 69% 0 in 0.00 W/m2 unknown
02:49 39.2 °F 28.4 °F 30 in ENE 8.7 mph 11.8 mph 68% 0 in 0.00 W/m2 unknown
02:54 39.2 °F 30.2 °F 30 in East 9.9 mph 14.3 mph 69% 0 in 0.00 W/m2 unknown
02:59 39.2 °F 30.2 °F 30 in ENE 9.3 mph 14.3 mph 68% 0 in 0.00 W/m2 unknown
03:04 39.2 °F 30.2 °F 30 in ENE 9.9 mph 14.3 mph 68% 0 in 0.00 W/m2 unknown
03:09 39.2 °F 30.2 °F 30 in ENE 10.6 mph 13 mph 68% 0 in 0.00 W/m2 unknown
03:14 39.2 °F 30.2 °F 30 in ENE 9.3 mph 13 mph 68% 0 in 0.00 W/m2 unknown
03:19 39.2 °F 30.2 °F 30 in ENE 9.3 mph 13 mph 68% 0 in 0.00 W/m2 unknown
03:24 39.2 °F 30.2 °F 30 in ENE 8.7 mph 13 mph 68% 0 in 0.00 W/m2 unknown
03:29 39.2 °F 30.2 °F 30 in ENE 9.9 mph 13 mph 68% 0 in 0.00 W/m2 unknown
03:34 39.2 °F 30.2 °F 30 in ENE 9.3 mph 13 mph 68% 0 in 0.00 W/m2 unknown
03:39 39.2 °F 30.2 °F 30 in ENE 9.3 mph 13 mph 68% 0 in 0.00 W/m2 unknown
03:44 39.2 °F 28.4 °F 30 in ENE 9.9 mph 14.3 mph 68% 0 in 0.00 W/m2 unknown
03:49 39.2 °F 28.4 °F 30 in ENE 9.9 mph 14.3 mph 68% 0 in 0.00 W/m2 unknown
03:54 39.2 °F 28.4 °F 30.1 in ENE 10.6 mph 14.9 mph 68% 0 in 0.00 W/m2 unknown
03:59 39.2 °F 30.2 °F 30.1 in ENE 9.9 mph 14.9 mph 69% 0 in 0.00 W/m2 unknown
04:04 39.2 °F 28.4 °F 30.1 in ENE 9.9 mph 14.9 mph 68% 0 in 0.00 W/m2 unknown
04:09 39.2 °F 30.2 °F 30.1 in ENE 8.7 mph 14.3 mph 69% 0 in 0.00 W/m2 unknown
04:14 39.2 °F 30.2 °F 30.1 in ENE 9.3 mph 14.3 mph 69% 0 in 0.00 W/m2 unknown
04:19 39.2 °F 30.2 °F 30.1 in ENE 9.9 mph 13 mph 69% 0 in 0.00 W/m2 unknown
04:24 39.2 °F 30.2 °F 30.1 in ENE 9.3 mph 13 mph 69% 0 in 0.00 W/m2 unknown
04:29 39.2 °F 30.2 °F 30.1 in ENE 8.7 mph 11.8 mph 69% 0 in 0.00 W/m2 unknown
04:34 39.2 °F 30.2 °F 30.1 in ENE 9.3 mph 13 mph 69% 0 in 0.00 W/m2 unknown
04:39 39.2 °F 30.2 °F 30.1 in ENE 8.7 mph 13 mph 69% 0 in 0.00 W/m2 unknown
04:44 39.2 °F 30.2 °F 30.1 in ENE 9.9 mph 11.8 mph 70% 0 in 0.00 W/m2 unknown
04:49 39.2 °F 30.2 °F 30.1 in ENE 9.9 mph 13 mph 69% 0 in 0.00 W/m2 unknown
04:54 39.2 °F 30.2 °F 30.1 in ENE 9.3 mph 13 mph 70% 0 in 0.00 W/m2 unknown
04:59 39.2 °F 30.2 °F 30.1 in ENE 8.7 mph 11.8 mph 70% 0 in 0.00 W/m2 unknown
05:04 39.2 °F 30.2 °F 30.1 in ENE 8.7 mph 11.8 mph 70% 0 in 0.00 W/m2 unknown
05:09 39.2 °F 30.2 °F 30.1 in ENE 8.7 mph 11.8 mph 70% 0 in 0.00 W/m2 unknown
05:14 39.2 °F 30.2 °F 30.1 in ENE 8.1 mph 11.8 mph 70% 0 in 0.00 W/m2 unknown
05:19 39.2 °F 30.2 °F 30.1 in ENE 8.7 mph 11.8 mph 70% 0 in 0.00 W/m2 unknown
05:24 39.2 °F 30.2 °F 30.1 in ENE 8.1 mph 11.8 mph 70% 0 in 0.00 W/m2 unknown
05:29 39.2 °F 30.2 °F 30.1 in ENE 8.7 mph 11.8 mph 70% 0 in 0.00 W/m2 unknown
05:34 39.2 °F 28.4 °F 30.1 in ENE 8.7 mph 11.8 mph 69% 0 in 0.00 W/m2 unknown
05:39 39.2 °F 28.4 °F 30.1 in East 9.3 mph 13 mph 69% 0 in 0.00 W/m2 unknown
05:44 39.2 °F 28.4 °F 30.1 in ENE 9.3 mph 16.2 mph 69% 0 in 0.00 W/m2 unknown
05:49 39.2 °F 28.4 °F 30.1 in ENE 11.2 mph 13 mph 69% 0 in 0.00 W/m2 unknown
05:54 39.2 °F 28.4 °F 30.1 in ENE 9.9 mph 13 mph 69% 0 in 0.00 W/m2 unknown
05:59 39.2 °F 28.4 °F 30.1 in ENE 9.9 mph 14.3 mph 68% 0 in 0.00 W/m2 unknown
06:04 39.2 °F 28.4 °F 30.1 in ENE 9.3 mph 14.3 mph 68% 0 in 0.00 W/m2 unknown
06:09 39.2 °F 28.4 °F 30.1 in ENE 9.9 mph 14.3 mph 68% 0 in 0.00 W/m2 unknown
06:14 39.2 °F 28.4 °F 30.1 in ENE 8.1 mph 14.3 mph 67% 0 in 0.00 W/m2 unknown
06:19 39.2 °F 28.4 °F 30.1 in ENE 8.7 mph 12.4 mph 67% 0 in 0.00 W/m2 unknown
06:24 39.2 °F 28.4 °F 30.1 in ENE 8.7 mph 13 mph 67% 0 in 0.00 W/m2 unknown
06:29 39.2 °F 28.4 °F 30.1 in ENE 8.1 mph 11.8 mph 67% 0 in 0.00 W/m2 unknown
06:34 39.2 °F 28.4 °F 30.1 in ENE 8.1 mph 11.8 mph 67% 0 in 0.00 W/m2 unknown
06:39 37.4 °F 28.4 °F 30.1 in ENE 8.7 mph 11.8 mph 68% 0 in 0.00 W/m2 unknown
06:44 37.4 °F 28.4 °F 30.1 in ENE 7.5 mph 11.8 mph 68% 0 in 0.00 W/m2 unknown
06:49 37.4 °F 28.4 °F 30.1 in ENE 6.8 mph 9.9 mph 68% 0 in 0.00 W/m2 unknown
06:54 37.4 °F 28.4 °F 30.1 in ENE 7.5 mph 11.8 mph 68% 0 in 5.00 W/m2 unknown
06:59 37.4 °F 28.4 °F 30.1 in ENE 8.1 mph 11.8 mph 69% 0 in 7.00 W/m2 unknown
07:04 37.4 °F 28.4 °F 30.1 in ENE 7.5 mph 9.3 mph 69% 0 in 9.00 W/m2 unknown
07:09 37.4 °F 28.4 °F 30.1 in East 6.8 mph 9.3 mph 69% 0 in 12.00 W/m2 unknown
07:14 37.4 °F 28.4 °F 30.1 in ENE 5.6 mph 8.1 mph 69% 0 in 14.00 W/m2 unknown
07:19 37.4 °F 28.4 °F 30.1 in ENE 6.2 mph 8.1 mph 69% 0 in 18.00 W/m2 unknown
07:24 37.4 °F 28.4 °F 30.1 in East 5.6 mph 8.7 mph 69% 0 in 19.00 W/m2 unknown
07:29 37.4 °F 28.4 °F 30.1 in East 6.8 mph 9.9 mph 69% 0 in 21.00 W/m2 unknown
07:34 37.4 °F 28.4 °F 30.1 in ENE 6.8 mph 10.6 mph 69% 0 in 28.00 W/m2 unknown
07:39 37.4 °F 28.4 °F 30.1 in ENE 5.6 mph 9.9 mph 69% 0 in 33.00 W/m2 unknown
07:44 37.4 °F 28.4 °F 30.1 in ENE 6.2 mph 9.3 mph 69% 0 in 39.00 W/m2 unknown
07:49 37.4 °F 28.4 °F 30.1 in ENE 6.2 mph 9.3 mph 69% 0 in 40.00 W/m2 unknown
07:54 37.4 °F 28.4 °F 30.1 in ENE 6.8 mph 8.7 mph 69% 0 in 49.00 W/m2 unknown
07:59 37.4 °F 28.4 °F 30.1 in ENE 6.8 mph 9.3 mph 69% 0 in 65.00 W/m2 unknown
08:04 37.4 °F 28.4 °F 30.1 in ENE 7.5 mph 10.6 mph 68% 0 in 67.00 W/m2 unknown
08:09 39.2 °F 28.4 °F 30.1 in ENE 6.8 mph 11.8 mph 67% 0 in 72.00 W/m2 unknown
08:14 39.2 °F 28.4 °F 30.1 in ENE 6.8 mph 11.8 mph 67% 0 in 62.00 W/m2 unknown
08:19 39.2 °F 28.4 °F 30.1 in ENE 8.7 mph 11.8 mph 66% 0 in 54.00 W/m2 unknown
08:24 39.2 °F 28.4 °F 30.1 in ENE 8.1 mph 11.8 mph 66% 0 in 51.00 W/m2 unknown
08:29 39.2 °F 28.4 °F 30.1 in ENE 6.8 mph 9.9 mph 65% 0 in 58.00 W/m2 unknown
08:34 39.2 °F 28.4 °F 30.1 in ENE 6.8 mph 9.3 mph 65% 0 in 70.00 W/m2 unknown
08:39 39.2 °F 28.4 °F 30.1 in ENE 9.3 mph 11.8 mph 65% 0 in 81.00 W/m2 unknown
08:44 41 °F 28.4 °F 30.1 in ENE 8.7 mph 12.4 mph 64% 0 in 90.00 W/m2 unknown
08:49 41 °F 28.4 °F 30.1 in ENE 8.7 mph 13 mph 62% 0 in 102.00 W/m2 unknown
08:54 41 °F 28.4 °F 30.1 in ENE 8.7 mph 11.8 mph 62% 0 in 114.00 W/m2 unknown
08:59 41 °F 28.4 °F 30.1 in ENE 8.1 mph 11.8 mph 62% 0 in 130.00 W/m2 unknown
09:04 42.8 °F 28.4 °F 30.1 in ENE 11.2 mph 14.9 mph 61% 0 in 155.00 W/m2 unknown
09:09 42.8 °F 28.4 °F 30.1 in East 12.4 mph 16.2 mph 59% 0 in 186.00 W/m2 unknown
09:14 42.8 °F 28.4 °F 30.1 in East 14.3 mph 17.4 mph 57% 0 in 309.00 W/m2 unknown
09:19 44.6 °F 28.4 °F 30.1 in East 10.6 mph 16.8 mph 56% 0 in 339.00 W/m2 unknown
09:24 44.6 °F 28.4 °F 30.1 in East 13.7 mph 17.4 mph 55% 0 in 397.00 W/m2 unknown
09:29 44.6 °F 28.4 °F 30.1 in East 14.3 mph 18.6 mph 54% 0 in 399.00 W/m2 unknown
09:34 44.6 °F 28.4 °F 30.1 in East 14.3 mph 19.9 mph 54% 0 in 388.00 W/m2 unknown
09:39 44.6 °F 28.4 °F 30.1 in ENE 14.3 mph 19.9 mph 53% 0 in 385.00 W/m2 unknown
09:44 44.6 °F 28.4 °F 30.1 in ENE 13 mph 18 mph 53% 0 in 383.00 W/m2 unknown
09:49 44.6 °F 30.2 °F 30.1 in East 14.3 mph 19.3 mph 54% 0 in 394.00 W/m2 unknown
09:54 44.6 °F 28.4 °F 30.1 in East 14.3 mph 19.9 mph 53% 0 in 404.00 W/m2 unknown
09:59 44.6 °F 28.4 °F 30.1 in East 14.9 mph 19.9 mph 53% 0 in 410.00 W/m2 unknown
10:04 44.6 °F 28.4 °F 30.1 in East 14.3 mph 21.1 mph 52% 0 in 408.00 W/m2 unknown
10:09 44.6 °F 28.4 °F 30.1 in East 14.3 mph 21.1 mph 52% 0 in 427.00 W/m2 unknown
10:14 44.6 °F 28.4 °F 30.1 in ENE 14.3 mph 21.1 mph 52% 0 in 441.00 W/m2 unknown
10:19 44.6 °F 26.6 °F 30.1 in East 14.3 mph 19.9 mph 50% 0 in 489.00 W/m2 unknown
10:24 46.4 °F 28.4 °F 30.1 in East 14.3 mph 19.9 mph 50% 0 in 504.00 W/m2 unknown
10:29 46.4 °F 26.6 °F 30.1 in East 14.9 mph 19.9 mph 48% 0 in 508.00 W/m2 unknown
10:34 46.4 °F 26.6 °F 30.1 in East 14.9 mph 19.9 mph 47% 0 in 501.00 W/m2 unknown
10:39 46.4 °F 26.6 °F 30.1 in East 14.3 mph 19.9 mph 46% 0 in 526.00 W/m2 unknown
10:44 46.4 °F 26.6 °F 30.1 in East 13.7 mph 23 mph 45% 0 in 533.00 W/m2 unknown
10:49 46.4 °F 26.6 °F 30.1 in East 13.7 mph 23 mph 45% 0 in 534.00 W/m2 unknown
10:54 46.4 °F 26.6 °F 30.1 in East 14.3 mph 19.9 mph 45% 0 in 589.00 W/m2 unknown
10:59 46.4 °F 26.6 °F 30.1 in East 13.7 mph 19.9 mph 45% 0 in 629.00 W/m2 unknown
11:04 46.4 °F 26.6 °F 30.1 in East 14.9 mph 20.5 mph 45% 0 in 555.00 W/m2 unknown
11:09 46.4 °F 26.6 °F 30.1 in East 14.3 mph 21.1 mph 45% 0 in 383.00 W/m2 unknown
11:14 46.4 °F 24.8 °F 30.1 in East 15.5 mph 19.9 mph 44% 0 in 441.00 W/m2 unknown
11:19 46.4 °F 26.6 °F 30.1 in East 14.3 mph 19.9 mph 46% 0 in 436.00 W/m2 unknown
11:24 46.4 °F 26.6 °F 30.1 in East 11.8 mph 16.2 mph 45% 0 in 610.00 W/m2 unknown
11:29 46.4 °F 26.6 °F 30.1 in East 14.9 mph 19.9 mph 45% 0 in 610.00 W/m2 unknown
11:34 46.4 °F 26.6 °F 30.1 in East 13 mph 17.4 mph 45% 0 in 624.00 W/m2 unknown
11:39 46.4 °F 26.6 °F 30.1 in ENE 11.2 mph 16.8 mph 45% 0 in 501.00 W/m2 unknown
11:44 46.4 °F 26.6 °F 30.1 in East 13 mph 17.4 mph 45% 0 in 385.00 W/m2 unknown
11:49 48.2 °F 26.6 °F 30.1 in ESE 11.2 mph 16.8 mph 45% 0 in 617.00 W/m2 unknown
11:54 48.2 °F 26.6 °F 30.1 in ESE 12.4 mph 16.2 mph 44% 0 in 617.00 W/m2 unknown
11:59 48.2 °F 26.6 °F 30.1 in East 13 mph 19.9 mph 44% 0 in 606.00 W/m2 unknown
12:04 48.2 °F 26.6 °F 30.1 in ESE 13 mph 19.9 mph 44% 0 in 575.00 W/m2 unknown
12:09 48.2 °F 28.4 °F 30.1 in ESE 10.6 mph 14.9 mph 46% 0 in 640.00 W/m2 unknown
12:14 48.2 °F 26.6 °F 30.1 in ESE 8.7 mph 14.3 mph 44% 0 in 679.00 W/m2 unknown
12:19 48.2 °F 26.6 °F 30.1 in East 11.2 mph 13.7 mph 44% 0 in 670.00 W/m2 unknown
12:24 48.2 °F 26.6 °F 30.1 in East 9.9 mph 14.3 mph 43% 0 in 601.00 W/m2 unknown
12:29 48.2 °F 26.6 °F 30.1 in East 9.3 mph 14.3 mph 44% 0 in 301.00 W/m2 unknown
12:34 48.2 °F 26.6 °F 30.1 in East 8.1 mph 13 mph 44% 0 in 262.00 W/m2 unknown
12:39 48.2 °F 28.4 °F 30.1 in East 9.3 mph 11.8 mph 45% 0 in 615.00 W/m2 unknown
12:44 48.2 °F 26.6 °F 30.1 in ENE 8.7 mph 14.3 mph 43% 0 in 564.00 W/m2 unknown
12:49 48.2 °F 26.6 °F 30.1 in East 8.7 mph 14.3 mph 44% 0 in 654.00 W/m2 unknown
12:54 48.2 °F 26.6 °F 30.1 in ENE 8.7 mph 14.3 mph 44% 0 in 663.00 W/m2 unknown
12:59 48.2 °F 26.6 °F 30.1 in ENE 7.5 mph 11.8 mph 43% 0 in 638.00 W/m2 unknown
13:04 48.2 °F 26.6 °F 30.1 in NNE 4.3 mph 11.8 mph 44% 0 in 478.00 W/m2 unknown
13:09 48.2 °F 26.6 °F 30 in ENE 5 mph 8.1 mph 43% 0 in 478.00 W/m2 unknown
13:14 48.2 °F 26.6 °F 30 in East 4.3 mph 6.8 mph 43% 0 in 418.00 W/m2 unknown
13:19 48.2 °F 26.6 °F 30 in ENE 3.7 mph 6.2 mph 44% 0 in 598.00 W/m2 unknown
13:24 50 °F 28.4 °F 30 in NE 5.6 mph 6.8 mph 45% 0 in 603.00 W/m2 unknown
13:29 50 °F 28.4 °F 30 in ENE 5 mph 6.8 mph 43% 0 in 603.00 W/m2 unknown
13:34 50 °F 26.6 °F 30 in SE 7.5 mph 10.6 mph 43% 0 in 610.00 W/m2 unknown
13:39 50 °F 28.4 °F 30 in SSE 5 mph 9.9 mph 44% 0 in 613.00 W/m2 unknown
13:44 50 °F 26.6 °F 30 in SSW 5 mph 6.8 mph 42% 0 in 596.00 W/m2 unknown
13:49 50 °F 30.2 °F 30 in WSW 2.5 mph 6.8 mph 47% 0 in 633.00 W/m2 unknown
13:54 50 °F 30.2 °F 30 in ENE 8.7 mph 10.6 mph 47% 0 in 633.00 W/m2 unknown
13:59 50 °F 28.4 °F 30 in NNE 8.1 mph 11.8 mph 43% 0 in 619.00 W/m2 unknown
14:04 50 °F 26.6 °F 30 in ESE 6.8 mph 11.8 mph 42% 0 in 615.00 W/m2 unknown
14:09 50 °F 28.4 °F 30 in East 7.5 mph 10.6 mph 44% 0 in 490.00 W/m2 unknown
14:14 50 °F 28.4 °F 30 in ESE 5.6 mph 9.9 mph 44% 0 in 563.00 W/m2 unknown
14:19 50 °F 26.6 °F 30 in South 3.1 mph 8.1 mph 42% 0 in 547.00 W/m2 unknown
14:24 50 °F 28.4 °F 30 in South 5 mph 8.1 mph 44% 0 in 538.00 W/m2 unknown
14:29 50 °F 26.6 °F 30 in East 5.6 mph 8.1 mph 41% 0 in 527.00 W/m2 unknown
14:34 50 °F 28.4 °F 30 in SE 5.6 mph 8.1 mph 42% 0 in 512.00 W/m2 unknown
14:39 50 °F 28.4 °F 30 in ENE 5 mph 8.1 mph 43% 0 in 517.00 W/m2 unknown
14:44 50 °F 28.4 °F 30 in ENE 6.8 mph 9.3 mph 42% 0 in 517.00 W/m2 unknown
14:49 50 °F 28.4 °F 30 in NNE 6.2 mph 8.7 mph 42% 0 in 490.00 W/m2 unknown
14:54 50 °F 28.4 °F 30 in East 6.2 mph 10.6 mph 41% 0 in 489.00 W/m2 unknown
14:59 50 °F 26.6 °F 30 in SSE 5 mph 9.9 mph 40% 0 in 466.00 W/m2 unknown
15:04 50 °F 26.6 °F 30 in East 6.8 mph 9.3 mph 41% 0 in 461.00 W/m2 unknown
15:09 50 °F 26.6 °F 30 in East 6.8 mph 8.7 mph 41% 0 in 123.00 W/m2 unknown
15:14 48.2 °F 26.6 °F 30 in SE 3.7 mph 8.1 mph 42% 0 in 125.00 W/m2 unknown
15:19 48.2 °F 26.6 °F 30 in SSE 3.7 mph 6.8 mph 42% 0 in 116.00 W/m2 unknown
15:24 48.2 °F 26.6 °F 30 in South 3.1 mph 5 mph 41% 0 in 410.00 W/m2 unknown
15:29 50 °F 26.6 °F 30 in SSW 3.7 mph 6.2 mph 42% 0 in 410.00 W/m2 unknown
15:34 50 °F 28.4 °F 30 in SW 3.1 mph 6.2 mph 42% 0 in 390.00 W/m2 unknown
15:39 50 °F 26.6 °F 30 in South 4.3 mph 8.7 mph 41% 0 in 374.00 W/m2 unknown
15:44 50 °F 26.6 °F 30 in ESE 6.2 mph 9.3 mph 40% 0 in 355.00 W/m2 unknown
15:49 50 °F 26.6 °F 30 in ESE 4.3 mph 8.7 mph 40% 0 in 352.00 W/m2 unknown
15:54 50 °F 26.6 °F 30 in ESE 8.7 mph 11.8 mph 40% 0 in 341.00 W/m2 unknown
15:59 50 °F 26.6 °F 30 in ESE 8.7 mph 11.8 mph 41% 0 in 325.00 W/m2 unknown
16:04 50 °F 26.6 °F 30 in ENE 5 mph 9.9 mph 40% 0 in 309.00 W/m2 unknown
16:09 50 °F 26.6 °F 30 in ENE 5.6 mph 8.1 mph 41% 0 in 294.00 W/m2 unknown
16:14 50 °F 24.8 °F 30 in ESE 6.2 mph 8.1 mph 39% 0 in 281.00 W/m2 unknown
16:19 50 °F 24.8 °F 30 in East 6.2 mph 8.1 mph 39% 0 in 265.00 W/m2 unknown
16:24 50 °F 26.6 °F 30 in ESE 3.7 mph 8.1 mph 41% 0 in 251.00 W/m2 unknown
16:29 50 °F 26.6 °F 30 in ESE 4.3 mph 6.2 mph 41% 0 in 239.00 W/m2 unknown
16:34 50 °F 24.8 °F 30 in SE 3.7 mph 6.2 mph 39% 0 in 225.00 W/m2 unknown
16:39 50 °F 24.8 °F 30 in South 3.7 mph 6.2 mph 39% 0 in 209.00 W/m2 unknown
16:44 50 °F 24.8 °F 30 in SSW 3.7 mph 6.2 mph 39% 0 in 197.00 W/m2 unknown
16:49 50 °F 26.6 °F 30 in SSE 3.1 mph 6.2 mph 40% 0 in 181.00 W/m2 unknown
16:54 50 °F 24.8 °F 30 in ENE 5 mph 6.8 mph 39% 0 in 165.00 W/m2 unknown
16:59 50 °F 26.6 °F 30 in ENE 5 mph 6.8 mph 40% 0 in 153.00 W/m2 unknown
17:04 50 °F 26.6 °F 30 in East 5.6 mph 8.7 mph 40% 0 in 137.00 W/m2 unknown
17:09 48.2 °F 26.6 °F 30 in ENE 5.6 mph 9.3 mph 40% 0 in 121.00 W/m2 unknown
17:14 48.2 °F 26.6 °F 30 in ENE 3.7 mph 8.7 mph 41% 0 in 107.00 W/m2 unknown
17:19 48.2 °F 24.8 °F 30 in ENE 5 mph 6.2 mph 40% 0 in 91.00 W/m2 unknown
17:24 48.2 °F 26.6 °F 30 in East 5 mph 6.8 mph 41% 0 in 77.00 W/m2 unknown
17:29 48.2 °F 26.6 °F 30 in East 6.2 mph 8.1 mph 41% 0 in 63.00 W/m2 unknown
17:34 48.2 °F 24.8 °F 30 in East 5.6 mph 9.3 mph 41% 0 in 54.00 W/m2 unknown
17:39 48.2 °F 24.8 °F 30 in East 5.6 mph 8.7 mph 40% 0 in 46.00 W/m2 unknown
17:44 48.2 °F 24.8 °F 30 in East 5 mph 6.8 mph 41% 0 in 35.00 W/m2 unknown
17:49 48.2 °F 24.8 °F 30 in East 5 mph 6.2 mph 42% 0 in 25.00 W/m2 unknown
17:54 46.4 °F 24.8 °F 30 in East 3.7 mph 6.2 mph 42% 0 in 18.00 W/m2 unknown
17:59 46.4 °F 24.8 °F 30 in East 3.1 mph 3.7 mph 43% 0 in 14.00 W/m2 unknown
18:04 46.4 °F 24.8 °F 30 in East 2.5 mph 3.7 mph 43% 0 in 11.00 W/m2 unknown
18:09 46.4 °F 24.8 °F 30 in ENE 2.5 mph 3.7 mph 44% 0 in 7.00 W/m2 unknown
18:14 46.4 °F 26.6 °F 30 in ENE 1.9 mph 2.5 mph 46% 0 in 0.00 W/m2 unknown
18:19 46.4 °F 26.6 °F 30 in ENE 1.9 mph 3.1 mph 46% 0 in 0.00 W/m2 unknown
18:24 44.6 °F 26.6 °F 30 in ENE 2.5 mph 3.7 mph 46% 0 in 0.00 W/m2 unknown
18:29 44.6 °F 24.8 °F 30 in ENE 2.5 mph 3.7 mph 45% 0 in 0.00 W/m2 unknown
18:34 44.6 °F 24.8 °F 30 in ENE 1.9 mph 3.7 mph 45% 0 in 0.00 W/m2 unknown
18:39 44.6 °F 26.6 °F 30 in ENE 1.9 mph 3.7 mph 47% 0 in 0.00 W/m2 unknown
18:44 44.6 °F 26.6 °F 30 in ESE 3.1 mph 3.7 mph 50% 0 in 0.00 W/m2 unknown
18:49 42.8 °F 26.6 °F 30 in ESE 3.1 mph 3.7 mph 52% 0 in 0.00 W/m2 unknown
18:54 42.8 °F 26.6 °F 30 in SSE 1.9 mph 3.1 mph 52% 0 in 0.00 W/m2 unknown
18:59 42.8 °F 26.6 °F 30 in SE 1.9 mph 3.7 mph 54% 0 in 0.00 W/m2 unknown
19:04 42.8 °F 26.6 °F 30 in ESE 1.9 mph 3.7 mph 55% 0 in 0.00 W/m2 unknown
19:09 42.8 °F 26.6 °F 30 in ESE 1.2 mph 3.1 mph 55% 0 in 0.00 W/m2 unknown
19:14 42.8 °F 26.6 °F 30 in SE 1.2 mph 1.9 mph 55% 0 in 0.00 W/m2 unknown
19:19 42.8 °F 26.6 °F 30 in SSE 1.2 mph 3.7 mph 55% 0 in 0.00 W/m2 unknown
19:24 42.8 °F 26.6 °F 30 in SE 1.9 mph 3.7 mph 54% 0 in 0.00 W/m2 unknown
19:29 42.8 °F 26.6 °F 30 in SE 1.9 mph 3.7 mph 54% 0 in 0.00 W/m2 unknown
19:34 42.8 °F 26.6 °F 30 in SE 2.5 mph 3.1 mph 55% 0 in 0.00 W/m2 unknown
19:39 42.8 °F 26.6 °F 30 in East 7.5 mph 11.8 mph 54% 0 in 0.00 W/m2 unknown
19:44 42.8 °F 28.4 °F 30 in East 7.5 mph 11.8 mph 58% 0 in 0.00 W/m2 unknown
19:49 42.8 °F 28.4 °F 30 in ESE 8.1 mph 13 mph 58% 0 in 0.00 W/m2 unknown
19:54 42.8 °F 28.4 °F 30 in ESE 6.8 mph 13 mph 58% 0 in 0.00 W/m2 unknown
19:59 42.8 °F 28.4 °F 30.1 in ESE 6.2 mph 13 mph 58% 0 in 0.00 W/m2 unknown
20:04 42.8 °F 28.4 °F 30.1 in ESE 6.2 mph 9.9 mph 58% 0 in 0.00 W/m2 unknown
20:09 41 °F 28.4 °F 30.1 in ESE 3.7 mph 8.7 mph 59% 0 in 0.00 W/m2 unknown
20:14 41 °F 28.4 °F 30.1 in ESE 3.1 mph 5 mph 59% 0 in 0.00 W/m2 unknown
20:19 41 °F 28.4 °F 30.1 in ESE 1.9 mph 3.7 mph 59% 0 in 0.00 W/m2 unknown
20:24 41 °F 28.4 °F 30.1 in East 1.2 mph 3.1 mph 59% 0 in 0.00 W/m2 unknown
20:29 41 °F 28.4 °F 30.1 in East 1.9 mph 3.7 mph 59% 0 in 0.00 W/m2 unknown
20:34 41 °F 28.4 °F 30.1 in ENE 1.9 mph 3.7 mph 60% 0 in 0.00 W/m2 unknown
20:39 41 °F 28.4 °F 30.1 in ENE 1.9 mph 3.7 mph 61% 0 in 0.00 W/m2 unknown
20:44 41 °F 28.4 °F 30.1 in ENE 2.5 mph 3.7 mph 61% 0 in 0.00 W/m2 unknown
20:49 41 °F 28.4 °F 30.1 in ENE 2.5 mph 3.7 mph 61% 0 in 0.00 W/m2 unknown
20:54 41 °F 28.4 °F 30.1 in NE 3.1 mph 3.7 mph 61% 0 in 0.00 W/m2 unknown
20:59 41 °F 28.4 °F 30.1 in ENE 3.7 mph 6.8 mph 61% 0 in 0.00 W/m2 unknown
21:04 41 °F 28.4 °F 30.1 in ENE 3.1 mph 6.8 mph 60% 0 in 0.00 W/m2 unknown
21:09 41 °F 28.4 °F 30.1 in ENE 3.1 mph 5 mph 60% 0 in 0.00 W/m2 unknown
21:14 41 °F 28.4 °F 30.1 in ENE 3.1 mph 5 mph 61% 0 in 0.00 W/m2 unknown
21:19 41 °F 28.4 °F 30.1 in ENE 3.1 mph 5 mph 60% 0 in 0.00 W/m2 unknown
21:24 41 °F 28.4 °F 30.1 in ENE 3.7 mph 5 mph 60% 0 in 0.00 W/m2 unknown
21:29 41 °F 28.4 °F 30.1 in NE 3.7 mph 5 mph 60% 0 in 0.00 W/m2 unknown
21:34 41 °F 28.4 °F 30.1 in NE 3.1 mph 3.7 mph 61% 0 in 0.00 W/m2 unknown
21:39 41 °F 30.2 °F 30.1 in NNE 3.1 mph 3.7 mph 62% 0 in 0.00 W/m2 unknown
21:44 41 °F 30.2 °F 30.1 in NNE 2.5 mph 3.7 mph 63% 0 in 0.00 W/m2 unknown
21:49 41 °F 30.2 °F 30.1 in NNE 2.5 mph 3.7 mph 63% 0 in 0.00 W/m2 unknown
21:54 41 °F 30.2 °F 30.1 in NE 3.1 mph 3.7 mph 64% 0 in 0.00 W/m2 unknown
21:59 41 °F 30.2 °F 30.1 in ENE 3.1 mph 3.7 mph 64% 0 in 0.00 W/m2 unknown
22:04 41 °F 30.2 °F 30.1 in ENE 3.1 mph 3.7 mph 64% 0 in 0.00 W/m2 unknown
22:09 41 °F 30.2 °F 30.1 in East 3.1 mph 3.7 mph 65% 0 in 0.00 W/m2 unknown
22:14 41 °F 30.2 °F 30.1 in East 1.9 mph 3.1 mph 66% 0 in 0.00 W/m2 unknown
22:19 41 °F 30.2 °F 30.1 in East 1.2 mph 3.7 mph 66% 0 in 0.00 W/m2 unknown
22:24 41 °F 30.2 °F 30.1 in East 2.5 mph 4.3 mph 66% 0 in 0.00 W/m2 unknown
22:29 41 °F 30.2 °F 30.1 in East 3.1 mph 5 mph 66% 0 in 0.00 W/m2 unknown
22:34 41 °F 30.2 °F 30.1 in East 3.1 mph 5 mph 65% 0 in 0.00 W/m2 unknown
22:39 41 °F 30.2 °F 30.1 in East 2.5 mph 5 mph 65% 0 in 0.00 W/m2 unknown
22:44 41 °F 30.2 °F 30.1 in East 2.5 mph 5 mph 65% 0 in 0.00 W/m2 unknown
22:49 41 °F 30.2 °F 30.1 in East 3.1 mph 5 mph 65% 0 in 0.00 W/m2 unknown
22:54 41 °F 30.2 °F 30.1 in East 3.7 mph 5 mph 65% 0 in 0.00 W/m2 unknown
22:59 41 °F 30.2 °F 30.1 in East 3.1 mph 6.2 mph 64% 0 in 0.00 W/m2 unknown
23:04 41 °F 30.2 °F 30.1 in East 4.3 mph 6.2 mph 64% 0 in 0.00 W/m2 unknown
23:09 41 °F 30.2 °F 30.1 in ESE 5 mph 5 mph 64% 0 in 0.00 W/m2 unknown
23:14 41 °F 30.2 °F 30.1 in East 5 mph 6.8 mph 65% 0 in 0.00 W/m2 unknown
23:19 41 °F 30.2 °F 30.1 in ENE 4.3 mph 6.8 mph 64% 0 in 0.00 W/m2 unknown
23:24 41 °F 30.2 °F 30.1 in NE 3.7 mph 6.8 mph 63% 0 in 0.00 W/m2 unknown
23:29 42.8 °F 30.2 °F 30.1 in NE 3.7 mph 6.2 mph 63% 0 in 0.00 W/m2 unknown
23:34 42.8 °F 30.2 °F 30.1 in ENE 5.6 mph 6.8 mph 62% 0 in 0.00 W/m2 unknown
23:39 42.8 °F 30.2 °F 30.1 in ENE 5.6 mph 6.8 mph 62% 0 in 0.00 W/m2 unknown
23:44 42.8 °F 30.2 °F 30.1 in ENE 5.6 mph 8.1 mph 62% 0 in 0.00 W/m2 unknown
23:49 42.8 °F 30.2 °F 30.1 in ENE 5 mph 8.1 mph 61% 0 in 0.00 W/m2 unknown
23:54 42.8 °F 30.2 °F 30.1 in ENE 5.6 mph 8.1 mph 61% 0 in 0.00 W/m2 unknown
23:59 42.8 °F 28.4 °F 30.1 in ENE 6.2 mph 6.8 mph 60% 0 in 0.00 W/m2 unknown
Stazione Meteorologica MeteoMincio Rivalta s/M (MN)
Con i complimenti di Weather Underground - 4 mb



GLOSSARIO METEOROLOGICO
Nube
Insieme di piccolissime particelle di acqua (liquida) o di ghiaccio, oppure dell'una e dell'altro insieme, in sospensione nell'atmosfera. Essa può anche contenere particelle d'acqua, allo stato liquido o solido, di dimensioni più grandi, e particelle provenienti, per esempio, da vapori industriali, da fumo, da polveri.
Share

Non seguire questo link o sarai bannato dal sito!